Regional Weather Roundup
Issued by NWS

Home | Current Version | Previous Version | Graphics & Text | Print | Product List | Glossary On
Versions: 1 2 3 4 5 6 7 8 9 10 11 12 13 14 15 16 17 18 19 20 21 22 23 24 25 26
000
ASUS45 KTFX 102310
RWRMT
MONTANA REGIONAL WEATHER ROUNDUP
NATIONAL WEATHER SERVICE GREAT FALLS MT
400 PM MST SUN DEC 10 2017

NOTE: "FAIR" INDICATES FEW OR NO CLOUDS BELOW 12000 FEET WITH NO
SIGNIFICANT WEATHER AND/OR OBSTRUCTIONS TO VISIBILITY.

MTZ001>007-043-110000-
WEST OF THE DIVIDE

CITY           SKY/WX    TMP DP  RH WIND       PRES   REMARKS
KALISPELL      CLOUDY    26  23  88 CALM      30.60S
MISSOULA       CLOUDY    20  18  92 CALM      30.59F FOG
BUTTE          FAIR      28  15  58 SE5       30.48S
MULLAN PASS    FAIR      38  32  79 NW3       30.47S
ANACONDA         N/A     28  18  64 NW3       30.47R
DEER LODGE       N/A     27  18  69 NE8       30.51S WCI  18
EUREKA           N/A    N/A N/A N/A MISG      30.63S
HAMILTON         N/A     18  16  93 N5        30.55S
LIBBY            N/A     30  21  69 CALM      30.59R
RONAN            N/A     26  21  81 CALM      30.57F
$$

MTZ008-052>055-110000-
SOUTHWEST MONTANA

CITY           SKY/WX    TMP DP  RH WIND       PRES   REMARKS
BOZEMAN        FAIR      24  16  71 E6        30.46F WCI  17
DILLON         FAIR      30  19  63 E8        30.48S WCI  22
W YELLOWSTONE  FAIR      23  12  63 CALM      30.55S
ENNIS          CLOUDY    37  19  48 S10G21    30.52R WCI  30
THREE FORKS      N/A     22  17  81 CALM      30.40F
TWIN BRIDGES     N/A     35  15  44 CALM      30.41F
$$

MTZ009-010-012-014-046-048-049-054-110000-
EAST SLOPES AND CENTRAL MONTANA

CITY           SKY/WX    TMP DP  RH WIND       PRES   REMARKS
CUT BANK       FAIR      48  14  25 W15       30.29R
GREAT FALLS    FAIR      47   9  21 SW17      30.31R
MALMSTROM AFB  FAIR      49  10  20 SW18      30.30R
HELENA         FAIR      29  20  69 SW5       30.45S
BOWMANS CRNR   FAIR      42   9  26 S10       30.33R
CHOTEAU          N/A     55  12  18 NW12      30.31R
FAIRFIELD      FAIR      50  14  24 W8        30.29S
POWER          FAIR      49  10  21 W10       30.29R
RAYNESFORD     FAIR      52   9  17 SW20      30.30R
ULM            FAIR      48  10  21 SW17      30.32R
$$

MTZ011-013-016-021-045-047-050-051-110000-
NORTH CENTRAL MONTANA

CITY           SKY/WX    TMP DP  RH WIND       PRES   REMARKS
HAVRE          FAIR      54  16  22 NW15      30.22R
LEWISTOWN      FAIR      44  20  38 W5        30.28R
N BAR RANCH    FAIR      50   5  16 W9G17     30.23F
CHINOOK          N/A     55  14  19 W15       30.19R
DENTON         FAIR      54  12  18 NW21G31   30.22R
GEYSER         FAIR      51   9  18 W26G35    30.26F
GRASS RANGE    FAIR      53  10  17 W23G29    30.19F
STANFORD       FAIR      51   9  18 NW18      30.28R
WINIFRED       FAIR      52  10  18 W18G25    30.24R
$$

MTZ017>020-022>027-061-062-110000-
NORTHEAST MONTANA

CITY           SKY/WX    TMP DP  RH WIND       PRES   REMARKS
GLASGOW        FAIR      40  15  36 W7        30.08F
GLENDIVE       MOCLDY    49  13  23 NW21G28   30.08S
JORDAN           N/A     50  10  20 W9        30.10F
SIDNEY         FAIR      46  18  32 W16       30.04F
WOLF POINT     FAIR      45  16  31 SW8       30.03F
MALTA          CLEAR     54  12  19 NW17G28   30.13R
PLENTYWOOD       N/A     43  25  49 CALM      30.00S
POPLAR           N/A     45  14  29 SW6       30.02F
$$

MTZ028>42-056>058-110000-
SOUTHCENTRAL AND SOUTHEAST MONTANA

CITY           SKY/WX    TMP DP  RH WIND       PRES   REMARKS
BAKER          FAIR      42  24  49 W9        30.11F
BILLINGS       FAIR      47  18  31 SW21      30.27R
LIVINGSTON     FAIR      45  10  24 W20       30.37F
MILES CITY     FAIR      54  16  22 W14       30.14S
BIG TIMBER     CLEAR     45   9  23 SW25      30.38R
FORSYTH          N/A     55  16  21 W10       30.18S
HARLOWTON      FAIR      45  11  25 NW15      30.30F
LAUREL           N/A     45  16  31 SW14      30.28F
$$

REGIONAL REPORTS...DAKOTAS

CITY           SKY/WX    TMP DP  RH WIND       PRES   REMARKS
WILLISTON      FAIR      44  22  41 W15       30.00F
MINOT          CLOUDY    42  26  53 W16       29.95S
DICKINSON      FAIR      39  22  50 W12       30.03R WCI  32
BEACH          FAIR      45  14  29 NW18      30.11S
CROSBY         FAIR      39  28  65 W14       29.97F WCI  31
TIOGA          FAIR      37  28  70 W6        29.97F
BISMARCK       MOCLDY    45  28  51 W8        30.01S
GRAND FORKS    CLOUDY    25  21  85 S8        30.00F WCI  16
FARGO          CLOUDY    28  22  78 S3        30.03S
BUFFALO SD       N/A     47  20  34 NW16      30.03F
RAPID CITY     FAIR      56   4  12 NW12      30.13F
$$

REGIONAL REPORTS...WYOMING/IDAHO/WASHINGTON

CITY           SKY/WX    TMP DP  RH WIND       PRES   REMARKS
GILLETTE       FAIR      47  18  31 SW13      30.24F
SHERIDAN       FAIR      52  14  22 NW10      30.23F
BUFFALO WY     FAIR      48   5  17 SW7       30.28F
CODY           FAIR      41  17  38 S9        30.35F
YELLOWSTONE LA   N/A     24  19  81 CALM      30.55F
IDAHO FALLS    FAIR      24  19  81 N3        30.60S
SALMON         CLOUDY    18  14  84 W3        30.73S
BOISE          CLOUDY    27  20  75 CALM      30.67F
SPOKANE        CLOUDY    28  24  85 N6        30.59F WCI  22
$$

REGIONAL REPORTS...ALBERTA

CITY           SKY/WX    TMP DP  RH WIND       PRES   REMARKS
EDMONTON       CLEAR     43  25  49 W15G23    30.16R
CALGARY        MOCLDY    54  14  20 W18G26    30.23R
LETHBRIDGE     MOCLDY    50  18  27 W15       30.26R
MEDICINE HAT   MOCLDY    48  23  37 W7        30.18R
$$

REGIONAL REPORTS...SASKATCHEWAN

CITY           SKY/WX    TMP DP  RH WIND       PRES   REMARKS
SWIFT CURRENT  PTCLDY    39  19  45 W16G22    30.03S WCI  30
REGINA         PTCLDY    34  27  75 W10       29.91F WCI  26
SASKATOON      MOCLDY    39  28  65 W18       29.85F WCI  30
$$




USA.gov is the U.S. government's official web portal to all federal, state and local government web resources and services.